Tracking 26955 objects as of 3-Feb-2023
HD Live streaming from Space Station
objects crossing your sky now

DELTA 1 DEB

Track DELTA 1 DEB now!
10-day predictions


NORAD ID: 21369
Int'l Code: 1975-052CP
Perigee: 737.6 km
Apogee: 869.0 km
Inclination: 99.7 °
Period: 100.8 minutes
Semi major axis: 7174 km
RCS: 0.052 m2 (small)
Launch date: June 12, 1975
Source: United States (US)
Launch site: AIR FORCE WESTERN TEST RANGE (AFWTR)

Note: This is SATELLITE DEBRIS
Your satellite tracking list
Your tracking list is empty




NASA's NSSDC Master Catalog

Two Line Element Set (TLE):
1 21369U 75052CP  23033.29590330  .00010446  00000-0  39868-2 0  9993
2 21369  99.6738 303.2279 0091578   9.5142 106.6535 14.28670600617208
Source of the keplerian elements: AFSPC